Volver al catálogo

ONEWEB-0557

ActivoComunicacionesPO
NORAD 56058·PAYLOAD·🇬🇧 United Kingdom

Lanzado Mar 26, 2023 desde Satish Dhawan Space Centre

Loading…

Próximos Pases (próximas 24 horas)

TLE

ActualizadoSource: CelesTrak SupGP

Época: Sep 14, 2026, 16:14 UTC

1 56058C 23043N   26257.67689074  .00000903  00000+0  23642-2 0  2572
2 56058  87.9150 211.0134 0002864 104.0102 289.1179 13.16591987    14

Sigue ONEWEB-0557 en tiempo real con AllMySat

Download on the App Store